{"data":{"norad_id":58518,"epoch":"2026-09-20T21:35:27.275136Z","epoch_age_seconds":112516,"freshness":"FRESH","line1":"1 58518U 23191L   26263.89962124  .00000202  00000+0  16882-4 0  9995","line2":"2 58518  43.0029  81.1826 0001544 273.5182  86.5493 15.27576355155322","mean_motion":15.27576355,"eccentricity":0.0001544,"inclination_deg":43.0029,"raan_deg":81.1826,"arg_perigee_deg":273.5182,"mean_anomaly_deg":86.5493,"bstar":1.6882e-5,"rev_number":15532,"period_min":94.26697364663,"perigee_km":482.00064168422,"apogee_km":484.11937932106,"semimajor_km":6861.1970105026,"source":"CELESTRAK","updated_at":"2026-09-21T09:00:33.908740Z"}}